Wind_Speed
3 8 12 11 12 13 12 15 15 15 6 9 13 14 17 26 21 27 26 27 27 33 37 39 42 41 38 36 31 26 22 22 24 27 27 25 26 26 24 30 36 40 37
3 10 11 10 11 11 13 11 12 11 10 6 18 20 18 25 18 20 24 29 29 31 30 30 31 34 32 24 20 20 22 21 23 27 28 28 25 31 35 38 35 33 34
3 6 12 7 5 8 8 12 12 12 11 10 11 15 15 17 24 20 20 24 23 20 20 20 20 20 21 22 23 22 22 25 26 29 27 30 35 36 35 34 35 33 31
4 5 9 8 7 10 9 6 4 5 6 5 5 7 8 10 11 14 15 15 16 17 18 19 20 22 22 23 22 22 24 27 32 33 33 34 34 34 33 33 31 29 27
6 7 7 9 9 7 9 7 8 5 4 2 3 4 8 10 11 13 15 17 19 19 19 19 20 23 24 26 27 29 30 30 29 30 31 32 33 32 29 27 26 26 26
11 11 12 13 10 8 9 9 7 5 4 5 5 7 9 11 11 13 15 16 19 21 18 20 25 28 28 27 28 28 28 29 29 29 30 29 29 27 23 24 24 24 23
13 14 13 11 10 9 7 6 5 3 1 2 4 6 7 7 8 11 13 14 16 18 21 22 23 24 25 25 25 26 26 27 27 27 26 25 24 24 23 22 22 22 21
11 11 12 11 11 10 8 5 3 1 0 2 3 4 5 5 6 8 10 13 15 17 19 21 22 22 21 23 23 24 25 25 24 25 24 23 22 21 20 20 19 20 20
12 12 12 11 9 7 5 4 3 1 0 1 3 4 5 5 7 8 9 11 12 15 17 19 21 22 19 22 23 24 25 24 20 20 19 20 19 19 19 18 18 19 20
14 13 12 11 10 9 8 7 5 3 2 1 2 3 5 6 7 8 10 11 12 13 15 17 19 20 19 20 22 22 22 22 20 18 18 19 19 18 18 19 19 19 20
15 14 13 12 10 8 6 4 3 3 3 4 5 5 6 6 7 9 11 13 13 14 15 16 17 18 19 20 21 21 21 21 20 20 20 18 18 19 19 20 20 20 21
16 15 13 11 9 8 7 7 7 7 7 7 7 6 6 7 8 11 13 15 15 16 17 18 18 19 19 20 20 19 19 20 21 21 20 19 20 20 20 20 20 21 22
16 15 15 15 14 13 13 12 11 10 8 8 8 8 9 9 9 12 15 16 17 17 18 19 19 19 20 20 19 19 19 20 21 21 22 21 21 21 21 21 21 21 22
17 17 17 16 15 14 13 12 11 10 10 10 11 12 12 12 12 14 17 17 18 19 19 19 20 20 20 20 20 20 19 20 20 22 22 22 22 22 22 21 21 22 22
17 17 17 17 17 16 14 13 14 13 12 12 13 14 15 15 15 16 19 20 20 20 21 21 22 22 22 21 20 20 20 20 21 21 22 22 22 22 22 22 21 21 22
15 15 15 15 16 16 17 17 16 15 15 15 15 16 17 17 18 19 20 22 22 22 22 22 23 22 22 22 21 20 19 19 20 20 20 20 21 21 21 21 21 21 21
14 15 16 17 17 18 18 19 19 19 19 18 18 18 19 19 20 20 21 22 23 23 23 23 23 22 21 21 21 20 19 19 19 18 18 19 19 19 19 19 18 18 18
15 17 18 18 20 21 21 21 22 23 23 23 22 21 21 21 21 23 23 23 23 23 23 22 23 22 21 21 21 20 19 18 18 17 17 16 16 16 15 14 15 16 16
17 18 19 20 22 21 23 25 25 24 25 24 24 24 24 24 27 29 25 24 26 23 21 22 22 22 22 21 21 20 18 17 16 16 15 14 14 13 12 13 13 14 16
17 20 21 22 24 24 25 26 27 26 26 24 24 27 28 31 34 33 29 26 26 23 20 22 22 21 21 21 21 20 19 17 16 14 13 13 12 12 11 11 13 15 17
16 20 21 24 25 26 27 28 28 28 27 24 30 29 32 34 37 34 28 24 25 19 20 22 22 22 21 20 20 20 19 17 15 13 13 13 12 10 10 13 15 17 17
17 18 21 25 27 27 28 28 29 28 28 30 30 29 34 34 36 28 24 23 22 18 21 21 21 21 20 19 19 19 17 15 14 12 12 11 10 11 12 14 16 16 16
18 20 21 25 28 29 30 30 30 29 30 32 31 33 33 34 28 24 21 22 18 18 20 19 20 19 19 18 18 17 15 13 12 11 11 11 11 13 14 15 15 15 15
20 22 23 25 26 27 28 30 30 30 32 31 32 30 32 25 22 19 20 18 16 18 18 18 18 18 17 16 16 15 13 12 11 11 11 12 13 14 14 15 15 16 16
20 23 25 24 23 23 24 25 26 27 29 30 28 26 23 20 16 17 16 15 15 16 16 16 16 16 16 15 13 12 11 11 11 11 12 13 14 15 16 17 17 17 17
22 26 24 22 20 20 20 21 21 21 20 19 21 23 19 14 14 12 13 13 14 14 14 15 15 14 14 13 12 12 12 12 12 13 14 15 16 17 19 19 20 20 20
Wind_Direction
169 194 200 195 193 193 185 173 181 194 225 204 228 214 222 235 246 238 245 244 263 262 247 242 245 248 250 264 273 276 277 278 286 288 285 285 289 288 287 296 293 294 298
61 149 148 172 179 174 174 181 180 201 208 200 207 214 234 232 234 242 247 254 261 263 264 267 271 271 266 270 277 280 286 289 286 287 289 288 283 290 295 297 296 295 295
46 93 157 119 160 153 168 176 171 178 175 195 211 212 243 230 218 221 223 245 249 247 251 251 252 258 263 268 274 279 279 284 285 288 288 286 291 293 294 295 296 296 297
139 139 154 164 165 152 156 161 172 174 162 164 180 204 223 220 220 230 234 238 242 251 255 258 260 266 272 281 278 277 275 278 282 283 284 285 290 292 293 294 295 295 293
172 173 180 174 192 188 152 169 189 201 157 196 224 221 233 222 229 236 237 245 254 257 265 256 253 272 285 284 281 278 279 283 285 285 285 287 288 289 291 291 289 290 292
162 160 162 167 174 164 166 173 179 175 178 220 240 250 252 255 256 257 259 258 258 265 276 273 276 281 280 279 279 281 282 282 282 284 283 285 285 288 290 289 292 293 290
164 164 164 163 160 157 162 165 172 167 184 252 259 257 256 263 272 268 269 272 276 274 274 278 279 277 278 280 283 282 282 282 282 284 285 288 289 290 292 289 286 284 284
167 163 159 159 160 161 158 153 147 133 304 294 300 296 298 297 297 298 297 293 288 287 283 281 280 280 283 283 283 280 282 283 287 287 287 286 284 286 283 282 281 284 289
172 169 164 161 158 155 146 138 129 129 79 333 315 320 318 317 317 312 304 300 297 295 294 293 291 291 293 290 287 289 291 288 285 283 280 279 279 279 280 280 281 283 288
179 178 174 171 169 167 166 163 161 161 170 256 304 317 324 326 322 318 315 312 308 303 299 294 293 293 290 289 288 290 289 293 286 278 280 285 285 283 282 281 280 284 288
184 186 186 185 185 186 190 200 224 248 268 282 293 304 315 321 326 327 323 318 315 312 308 303 302 299 297 294 289 286 285 284 286 287 288 285 280 279 277 278 279 284 288
190 193 197 198 205 216 231 243 251 255 258 262 272 283 296 306 319 331 327 320 315 313 312 310 309 304 299 294 291 287 285 283 283 284 285 283 282 281 281 281 282 285 288
202 205 209 212 217 223 227 232 237 246 260 275 289 296 301 305 313 327 327 319 314 313 312 310 308 305 301 297 294 288 284 281 282 283 286 287 287 285 282 282 283 286 288
212 215 219 224 231 238 247 255 263 272 280 287 295 299 299 300 302 316 321 317 309 307 307 307 307 306 304 300 296 294 289 285 283 284 285 286 286 286 286 285 285 287 288
226 230 230 234 239 244 251 258 265 269 277 286 294 296 295 292 291 302 316 319 315 312 314 314 312 311 307 302 298 294 291 288 286 284 284 285 285 286 285 287 287 287 286
242 247 249 253 257 260 261 262 263 266 272 279 284 289 293 293 291 295 311 320 317 313 314 314 313 311 307 304 300 297 294 290 288 287 287 285 284 285 286 286 286 286 286
249 252 255 257 260 261 262 264 268 269 273 278 282 285 289 290 291 293 303 314 316 312 311 311 310 310 308 305 302 300 298 296 293 290 288 285 284 283 283 284 286 288 291
247 251 253 255 258 260 262 263 265 271 275 279 282 284 285 287 288 289 296 304 312 308 307 309 311 312 311 308 306 303 301 299 297 293 290 288 286 285 284 287 289 293 300
258 259 260 259 261 262 264 266 269 273 276 280 285 286 285 282 283 282 283 291 302 301 304 309 312 313 312 311 309 304 301 299 295 291 288 286 285 284 286 290 295 302 306
269 267 263 264 264 264 266 268 270 273 276 280 284 285 283 280 288 293 287 290 300 298 303 308 311 311 310 309 308 305 302 299 295 290 286 284 285 285 288 295 302 305 308
276 274 269 266 267 268 267 268 269 271 274 274 279 281 282 286 291 300 299 289 298 294 299 305 310 310 310 311 309 307 303 299 294 288 285 284 281 283 290 299 304 310 313
277 281 277 271 268 266 266 265 267 268 271 271 285 282 286 295 301 306 296 292 293 290 299 306 309 309 310 312 310 308 305 300 292 285 283 283 281 286 296 303 309 313 314
277 278 279 273 270 268 266 266 266 266 268 270 279 285 294 302 307 302 293 293 286 295 302 308 309 308 310 312 311 310 307 303 294 285 282 282 285 291 298 304 311 314 314
278 278 282 277 271 269 267 266 265 266 271 277 280 292 303 306 301 294 294 290 293 300 305 309 307 308 312 314 313 312 309 303 293 286 283 284 288 291 297 304 309 311 310
280 283 282 276 272 270 269 268 267 268 270 276 291 301 298 293 291 295 289 288 296 302 307 308 309 314 315 313 311 310 308 304 297 291 288 286 288 291 295 299 302 304 305
285 286 278 272 269 268 267 267 269 267 272 285 290 291 286 286 292 286 287 295 302 306 310 311 313 315 313 313 311 307 305 302 298 294 291 290 291 293 294 295 295 295 297
Height
3071 3072 3074 3076 3077 3079 3082 3085 3088 3091 3094 3095 3098 3102 3106 3110 3114 3116 3119 3122 3125 3126 3127 3127 3129 3129 3130 3133 3132 3130 3130 3130 3130 3129 3128 3127 3126 3125 3124 3123 3120 3117 3113
3073 3073 3074 3076 3079 3081 3084 3085 3088 3091 3093 3095 3098 3101 3105 3108 3111 3114 3117 3119 3121 3122 3122 3123 3124 3125 3126 3125 3125 3124 3124 3124 3124 3125 3123 3121 3121 3119 3117 3116 3112 3109 3106
3075 3075 3077 3079 3082 3083 3085 3087 3089 3091 3093 3096 3098 3100 3103 3106 3108 3111 3113 3115 3116 3117 3118 3119 3119 3120 3120 3120 3118 3117 3117 3118 3117 3118 3117 3115 3114 3113 3109 3107 3106 3103 3100
3076 3078 3079 3081 3084 3086 3087 3090 3092 3093 3093 3096 3097 3101 3103 3105 3106 3109 3110 3112 3114 3115 3116 3116 3116 3116 3115 3115 3113 3113 3112 3111 3111 3109 3107 3107 3106 3105 3103 3100 3098 3095 3095
3078 3079 3080 3083 3086 3087 3088 3091 3093 3094 3093 3096 3098 3100 3102 3103 3104 3107 3109 3110 3111 3111 3111 3111 3110 3109 3109 3108 3108 3106 3105 3104 3103 3102 3100 3100 3098 3097 3095 3094 3093 3091 3088
3080 3082 3084 3085 3086 3087 3090 3092 3093 3093 3094 3097 3098 3100 3101 3102 3102 3103 3104 3105 3105 3106 3106 3106 3105 3106 3105 3103 3102 3101 3099 3097 3097 3096 3094 3093 3090 3089 3089 3086 3085 3086 3084
3082 3084 3086 3087 3088 3090 3092 3093 3095 3095 3096 3097 3099 3100 3100 3100 3099 3101 3101 3101 3100 3101 3101 3101 3100 3099 3098 3097 3096 3094 3092 3090 3090 3088 3087 3085 3082 3082 3082 3080 3080 3081 3079
3082 3083 3085 3088 3090 3093 3094 3095 3095 3095 3096 3097 3099 3100 3099 3099 3098 3098 3097 3097 3098 3097 3097 3097 3096 3095 3092 3090 3090 3087 3086 3084 3083 3081 3080 3078 3077 3077 3077 3076 3075 3074 3072
3082 3084 3086 3088 3089 3091 3092 3093 3094 3095 3096 3097 3098 3098 3098 3097 3096 3096 3095 3094 3094 3093 3091 3091 3090 3088 3088 3084 3083 3080 3078 3078 3078 3075 3075 3074 3074 3073 3071 3070 3070 3069 3068
3083 3085 3087 3089 3090 3092 3093 3094 3094 3095 3097 3098 3098 3098 3096 3095 3095 3095 3094 3092 3091 3089 3088 3087 3086 3084 3082 3080 3077 3075 3073 3072 3072 3072 3071 3070 3068 3067 3066 3066 3066 3065 3063
3082 3085 3087 3088 3089 3091 3092 3093 3094 3095 3096 3097 3097 3097 3095 3094 3093 3092 3091 3090 3088 3086 3084 3083 3082 3078 3075 3074 3072 3070 3069 3067 3066 3065 3065 3064 3064 3063 3063 3062 3061 3060 3058
3081 3084 3086 3089 3091 3092 3093 3094 3095 3095 3096 3096 3095 3095 3094 3093 3092 3090 3088 3086 3084 3083 3081 3078 3076 3074 3072 3070 3068 3066 3064 3062 3061 3060 3060 3059 3059 3058 3058 3056 3055 3054 3052
3079 3082 3085 3086 3088 3089 3090 3091 3091 3092 3093 3092 3091 3090 3089 3089 3089 3087 3086 3084 3082 3080 3077 3075 3072 3070 3067 3065 3063 3061 3060 3058 3056 3055 3054 3054 3053 3052 3051 3051 3050 3048 3047
3077 3080 3082 3084 3086 3088 3089 3089 3090 3090 3089 3088 3088 3087 3086 3086 3086 3085 3083 3081 3079 3076 3074 3071 3067 3064 3062 3059 3057 3055 3054 3052 3051 3050 3049 3049 3048 3046 3045 3045 3044 3042 3041
3074 3077 3079 3080 3082 3083 3084 3084 3085 3085 3085 3085 3085 3085 3084 3083 3083 3082 3080 3078 3075 3072 3070 3067 3064 3061 3058 3055 3052 3051 3049 3048 3047 3046 3044 3043 3042 3041 3040 3039 3038 3037 3036
3071 3073 3075 3077 3078 3080 3080 3081 3081 3081 3082 3082 3081 3081 3081 3080 3079 3078 3076 3074 3071 3068 3066 3063 3060 3057 3054 3051 3048 3046 3044 3043 3041 3040 3039 3037 3036 3035 3034 3034 3033 3032 3031
3067 3069 3071 3072 3074 3075 3076 3077 3078 3078 3078 3078 3077 3077 3076 3076 3074 3073 3071 3069 3066 3064 3061 3058 3055 3052 3049 3046 3043 3041 3039 3037 3036 3034 3033 3032 3031 3031 3030 3029 3027 3026 3025
3064 3065 3067 3068 3070 3071 3071 3072 3073 3074 3074 3073 3073 3072 3071 3070 3069 3068 3066 3064 3062 3059 3057 3054 3050 3047 3044 3041 3039 3036 3034 3032 3031 3029 3028 3027 3027 3026 3025 3024 3023 3022 3020
3060 3062 3063 3064 3065 3066 3066 3067 3068 3068 3068 3068 3068 3067 3065 3064 3063 3060 3059 3058 3056 3054 3051 3048 3045 3042 3039 3036 3034 3032 3030 3028 3026 3025 3024 3023 3022 3021 3021 3020 3019 3017 3015
3057 3057 3058 3059 3060 3060 3061 3061 3061 3062 3062 3062 3062 3061 3059 3058 3056 3053 3052 3051 3049 3047 3045 3042 3040 3037 3034 3031 3029 3028 3026 3024 3022 3021 3020 3019 3018 3018 3017 3016 3015 3013 3011
3053 3052 3053 3053 3054 3054 3054 3055 3056 3056 3056 3056 3054 3054 3052 3050 3049 3048 3047 3045 3044 3041 3039 3037 3034 3032 3030 3027 3025 3023 3021 3019 3018 3017 3016 3016 3015 3014 3014 3013 3011 3009 3006
3048 3048 3047 3047 3047 3048 3048 3048 3049 3049 3049 3049 3048 3047 3046 3044 3043 3043 3041 3039 3038 3036 3035 3032 3030 3028 3026 3023 3021 3019 3017 3015 3014 3013 3013 3012 3012 3011 3010 3009 3007 3004 3002
3043 3043 3043 3042 3041 3042 3043 3043 3043 3043 3043 3043 3042 3041 3040 3039 3038 3036 3035 3034 3032 3031 3030 3028 3026 3024 3021 3019 3017 3014 3013 3011 3010 3010 3009 3009 3008 3008 3007 3005 3003 3001 2999
3038 3037 3037 3036 3035 3035 3036 3036 3037 3038 3038 3038 3037 3036 3035 3034 3033 3031 3030 3029 3029 3027 3026 3023 3022 3020 3017 3015 3013 3011 3010 3008 3008 3007 3006 3006 3005 3004 3003 3001 2999 2997 2995
3032 3031 3030 3029 3029 3029 3029 3030 3031 3031 3032 3032 3032 3032 3030 3029 3027 3027 3026 3026 3024 3023 3022 3020 3019 3016 3014 3012 3010 3009 3007 3006 3005 3004 3003 3002 3001 3000 2999 2997 2995 2993 2991
3025 3024 3022 3022 3022 3023 3023 3024 3025 3026 3027 3028 3027 3026 3025 3024 3023 3023 3023 3022 3021 3020 3018 3017 3015 3013 3011 3009 3008 3006 3005 3004 3002 3001 3000 2998 2997 2995 2993 2991 2990 2988 2986